Flight Track Log - Related Links

Times and Time Zones

All times are in EDT time to prevent confusion due to time zone crossing. See the GTI192 flight status page for this flight to view local times or setup timezone preferences in your user account.

Time Position Orientation Groundspeed Altitude Reporting Facility
EDT Latitude Longitude Course Direction KTS MPH feet Rate Location/Type
Thu 12:19:29 AM 41.3256 -83.9908 195° South 332 382 12,100  Level Indianapolis Center
Thu 12:20:30 AM 41.2169 -84.0250 193° South 397 457 14,600 1,934 Climbing Indianapolis Center
Thu 12:21:00 AM 41.2700 -84.0966 217° Southwest  Level FlightAware
Thu 12:21:30 AM 41.1003 -84.0617 193° South 426 490 16,000  Level Indianapolis Center
Thu 12:22:00 AM 41.2246 -84.1649 256° West  Level FlightAware
Thu 12:22:31 AM 40.9725 -84.1025 194° South 433 498 16,000  Level Indianapolis Center
Thu 12:23:00 AM 41.2065 -84.2645 256° West  Level FlightAware
Thu 12:23:32 AM 40.8533 -84.1408 194° South 436 502 16,000  Level Indianapolis Center
Thu 12:24:32 AM 40.7350 -84.1775 193° South 435 501 16,000  Level Indianapolis Center
Thu 12:25:33 AM 40.6153 -84.2156 194° South 439 505 16,000  Level Indianapolis Center
Thu 12:26:33 AM 40.4964 -84.2517 193° South 436 502 16,000  Level Indianapolis Center
Thu 12:27:34 AM 40.3767 -84.2894 194° South 439 505 16,000  Level Indianapolis Center
Thu 12:28:35 AM 40.2583 -84.3269 194° South 437 503 16,000  Level Indianapolis Center
Thu 12:29:35 AM 40.1397 -84.3628 193° South 437 503 16,000  Level Indianapolis Center
Thu 12:30:36 AM 40.0225 -84.3986 193° South 431 496 16,000  Level Indianapolis Center
Thu 12:31:36 AM 39.9036 -84.4356 193° South 435 501 16,000 -645 Level Indianapolis Center
Thu 12:32:37 AM 39.7864 -84.4717 193° South 433 498 14,700 -1,934 Descending Indianapolis Center
Thu 12:33:37 AM 39.6728 -84.5064 193° South 422 486 12,100 -1,835 Descending Indianapolis Center
Thu 12:34:38 AM 39.5636 -84.5392 193° South 407 468 11,000 -545 Descending Indianapolis Center
Thu 12:35:38 AM 39.4553 -84.5733 194° South 400 460 11,000 -248 Level Indianapolis Center
Thu 12:36:39 AM 39.3753 -84.6294 208° Southwest 325 374 10,500 -1,121 Descending Indianapolis Center
Thu 12:37:09 AM 39.3500 -84.6500 212° Southwest 280 322 9,300 -2,188 Descending Cincinnati TRACON
Thu 12:38:15 AM 39.2667 -84.7000 205° Southwest 268 308 7,000 -1,429 Descending Cincinnati TRACON
Thu 12:39:15 AM 39.2333 -84.7500 229° Southwest 188 216 6,300 -895 Descending Cincinnati TRACON
Thu 12:40:09 AM 39.2167 -84.8167 252° West 206 237 5,300 -750 Descending Cincinnati TRACON
Thu 12:41:15 AM 39.1667 -84.8667 218° Southwest 195 224 4,800 -457 Descending Cincinnati TRACON
Thu 12:41:41 AM 39.1569 -84.8844 235° Southwest 197 227 4,600 -778 Descending Indianapolis Center
Thu 12:42:09 AM 39.1333 -84.8667 150° Southeast 182 209 4,100 -957 Descending Cincinnati TRACON
Thu 12:43:15 AM 39.0833 -84.8333 153° Southeast 167 192 3,100 -773 Descending Cincinnati TRACON
Thu 12:44:21 AM 39.0500 -84.8000 142° Southeast 124 143 2,400 -600 Descending Cincinnati TRACON
Thu 12:45:15 AM 39.0500 -84.7667 90° East 132 152 1,900 -579 Descending Cincinnati TRACON
Thu 12:46:15 AM 39.0500 -84.7167 90° East 120 138 1,300 -600 Descending Cincinnati TRACON

Login

Don't have an account? Register now (free) for customized features, flight alerts, and more!